Home > Weather > Stillwater > Past weeks

Flag for USA Past Weather in Stillwater, Minnesota, USA — Yesterday and Last 2 Weeks

Now
61 °F

Passing clouds.


Feels Like: 61 °F
Forecast: 60 / 82 °F
Wind: 5 mph from Northeast

Location: St. Paul Downtown Holman Field

Current Time: Aug 28, 2016 at 7:34:59 AM

Latest Report: Aug 28, 2016 at 6:53 AM


Visibility: 10 mi

Pressure: 30.14 "Hg

Humidity: 97%

Dew Point: 60 °F

Location of StillwaterLocation

Past Weather in Stillwater — Graph

°F

Stillwater Temperature Yesterday

Maximum temperature yesterday: 67 °F (at 4:53 PM)
Minimum temperature yesterday: 61 °F (at 11:53 PM)
Average temperature yesterday: 64 °F

High & Low Weather Summary for the Past Weeks

 TemperatureHumidityPressure
High84 °F (Aug 16, 1:53 PM)100% (Aug 17, 3:53 AM)30.19 "Hg (Aug 17, 3:53 AM)
Low55 °F (Aug 21, 6:53 AM)39% (Aug 24, 2:53 PM)29.73 "Hg (Aug 20, 5:53 AM)
Average69 °F76%29.96 "Hg
* Reported Aug 13 5:53 AM — Aug 28 5:53 AM, Stillwater, Weather by CustomWeather, © 2016

Note: Actual official high and low records may vary slightly from our data, if they occured in-between our weather recording intervals... More about our weather records

Advertising

Stillwater Weather History for the Previous 24 Hours

Scroll right to see more
 ConditionsComfort  
Time TempWeatherWind HumidityBarometerVisibility
5:53 AM
Sun, Aug 28
60 °FLow clouds.No wind96%30.10 "Hg10 mi
5:04 AM61 °FFog.No wind97%30.11 "Hg1 mi
3:59 AM61 °FFog.No wind100%30.11 "Hg1 mi
2:53 AM62 °FFog.No wind100%30.09 "Hg0 mi
1:57 AM62 °FFog.5 mph100%30.09 "Hg1 mi
12:53 AM62 °FFog.5 mph100%30.08 "Hg1 mi
11:53 PM
Sat, Aug 27
61 °FFog.3 mph97%30.07 "Hg3 mi
10:53 PM62 °FFog.No wind96%30.06 "Hg6 mi
9:53 PM64 °FClear.3 mph94%30.05 "Hg10 mi
8:53 PM66 °FPassing clouds.No wind90%30.02 "Hg10 mi
7:53 PM66 °FOvercast.5 mph90%30.01 "Hg10 mi
6:53 PM67 °FOvercast.No wind87%30.00 "Hg10 mi
5:53 PM67 °FFog.5 mph90%29.99 "Hg6 mi
4:53 PM67 °FMostly cloudy.7 mph87%29.99 "Hg10 mi
3:53 PM66 °FOvercast.8 mph87%29.99 "Hg10 mi
2:53 PM64 °FMostly cloudy.7 mph94%30.00 "Hg8 mi
1:53 PM65 °FMostly cloudy.13 mph87%30.00 "Hg10 mi
1:03 PM65 °FMostly cloudy.10 mph85%30.02 "Hg10 mi
12:53 PM66 °FMostly cloudy.12 mph84%30.01 "Hg10 mi
12:00 PM65 °FPartly sunny.7 mph85%30.03 "Hg10 mi
11:53 AM66 °FCloudy.8 mph84%30.02 "Hg10 mi
10:53 AM64 °FLight rain. Fog.No wind90%30.06 "Hg3 mi
9:53 AM64 °FOvercast.6 mph84%30.06 "Hg10 mi
8:53 AM64 °FBroken clouds.6 mph84%30.06 "Hg10 mi
7:53 AM63 °FOvercast.6 mph87%30.06 "Hg10 mi
Weather by CustomWeather, © 2016

See weather overviewHow to use our weather pages